Ft Riley, KS

12:19 PM CDT on March 25, 2017 (GMT -0500)
Marshall Army Air Field

Weather History for KFRI - March, 2014

Change the Weather History Date:

Monday, March 24, 2014

  Actual Average (KMHK) Record (KMHK)
Temperature  
Mean Temperature 35 °F -  
Max Temperature 44 °F 58 °F 78 °F (2007)
Min Temperature 26 °F 32 °F 21 °F (2006)
Degree Days  
Heating Degree Days 30    
Moisture  
Dew Point 27 °F    
Average Humidity 85    
Maximum Humidity 100    
Minimum Humidity 41    
Precipitation  
Precipitation 0.21 in - - ()
Sea Level Pressure  
Sea Level Pressure 30.26 in    
Wind  
Wind Speed 6 mph (NE)    
Max Wind Speed 9 mph    
Max Gust Speed -    
Visibility 4 miles    
Events Fog , Snow    
Averages and records for this station are not official NWS values.
T = Trace of Precipitation, MM = Missing Value Source: NWS Daily Summary

Daily Weather History Graph

Daily Weather History Graph

Search for Another Location

Airport or City:

Trip Planner

Search our weather history database for the weather conditions in past years. The results will help you decide how hot, cold, wet, or windy it might be!

Date:

Astronomy

Mar. 24, 2014 Rise Set
Actual Time 7:24 AM CDT 7:42 PM CDT
Civil Twilight 6:57 AM CDT 8:09 PM CDT
Nautical Twilight 6:26 AM CDT 8:41 PM CDT
Astronomical Twilight 5:54 AM CDT 9:13 PM CDT
Moon 2:52 AM CDT (3/24) 1:12 PM CDT (3/24)
Length of Visible Light 13h 12m
Length of Day
12h 18m
Last Quarter, 43% of the Moon is Illuminated
Mar 24
Last Quarter
Mar 30
New
Apr 7
First Quarter
Apr 15
Full
Apr 22
Last Quarter

Hourly Weather History & Observations

Time (CDT) Temp. Windchill Dew Point Humidity Pressure Visibility Wind Dir Wind Speed Gust Speed Precip Events Conditions
12:58 AM 31.6 °F 25.1 °F 12.7 °F 46% 30.29 in 10.0 mi ESE 6.9 mph - N/A   Clear
1:58 AM 26.6 °F 20.0 °F 13.1 °F 57% 30.28 in 10.0 mi SE 5.8 mph - N/A   Clear
2:58 AM 30.6 °F 27.1 °F 13.1 °F 48% 30.27 in 10.0 mi East 3.5 mph - N/A   Clear
3:58 AM 28.9 °F 22.8 °F 14.0 °F 54% 30.27 in 10.0 mi Variable 5.8 mph - N/A   Clear
4:58 AM 27.3 °F 23.4 °F 15.3 °F 61% 30.25 in 10.0 mi North 3.5 mph - N/A   Clear
5:58 AM 29.5 °F 25.9 °F 16.3 °F 58% 30.24 in 10.0 mi NNE 3.5 mph - N/A   Scattered Clouds
6:58 AM 31.3 °F 27.9 °F 15.8 °F 53% 30.25 in 10.0 mi NNE 3.5 mph - N/A   Partly Cloudy
7:58 AM 32.7 °F - 14.5 °F 47% 30.25 in 10.0 mi Variable 2.3 mph - N/A   Overcast
8:43 AM 32.0 °F 24.2 °F 17.6 °F 55% 30.25 in 10.0 mi NE 9.2 mph - N/A   Overcast
8:53 AM 32.0 °F 24.2 °F 17.6 °F 55% 30.25 in 10.0 mi NE 9.2 mph - N/A   Mostly Cloudy
8:58 AM 32.0 °F 24.2 °F 17.6 °F 55% 30.27 in 10.0 mi NE 9.2 mph - N/A   Mostly Cloudy
8:59 AM 32.0 °F 24.8 °F 17.6 °F 55% 30.25 in 10.0 mi NNE 8.1 mph - N/A   Overcast
9:14 AM 32.0 °F 24.2 °F 21.2 °F 64% 30.25 in 2.0 mi NE 9.2 mph - N/A Snow Light Snow
9:19 AM 32.0 °F 24.2 °F 23.0 °F 69% 30.25 in 1.0 mi NE 9.2 mph - N/A Snow Light Snow
9:24 AM 30.2 °F 22.6 °F 24.8 °F 80% 30.25 in 0.8 mi NE 8.1 mph - N/A Snow Light Snow
9:29 AM 28.4 °F 19.7 °F 26.6 °F 93% 30.25 in 0.5 mi NE 9.2 mph - N/A Fog , Snow Light Freezing Fog
9:34 AM 28.4 °F 20.4 °F 26.6 °F 93% 30.25 in 0.8 mi ENE 8.1 mph - N/A Snow Light Snow
9:49 AM 28.4 °F 21.2 °F 28.4 °F 100% 30.25 in 0.5 mi ENE 6.9 mph - N/A Fog , Snow Light Freezing Fog
9:54 AM 28.4 °F 21.2 °F 28.4 °F 100% 30.25 in 0.2 mi ENE 6.9 mph - N/A Fog , Snow Light Freezing Fog
9:58 AM 28.4 °F 22.2 °F 28.2 °F 99% 30.28 in 0.2 mi ENE 5.8 mph - 0.00 in Fog , Snow Light Freezing Fog
10:03 AM 28.4 °F 23.3 °F 28.4 °F 100% 30.25 in 0.5 mi NE 4.6 mph - N/A Fog , Snow Light Freezing Fog
10:13 AM 28.4 °F 23.3 °F 28.4 °F 100% 30.26 in 0.8 mi East 4.6 mph - N/A Snow Light Snow
10:28 AM 28.4 °F 23.3 °F 28.4 °F 100% 30.26 in 1.0 mi NNE 4.6 mph - N/A Snow Light Snow
10:38 AM 28.4 °F 23.3 °F 28.4 °F 100% 30.27 in 0.8 mi NE 4.6 mph - N/A Snow Light Snow
10:43 AM 28.4 °F 22.2 °F 28.4 °F 100% 30.27 in 0.5 mi NE 5.8 mph - N/A Fog , Snow Light Freezing Fog
10:53 AM 28.4 °F 22.2 °F 28.4 °F 100% 30.27 in 0.2 mi NNE 5.8 mph - N/A Fog , Snow Light Freezing Fog
10:58 AM 28.9 °F 23.9 °F 28.9 °F 100% 30.30 in 0.5 mi NE 4.6 mph - 0.01 in Fog , Snow Light Freezing Fog
11:13 AM 28.4 °F 23.3 °F 28.4 °F 100% 30.27 in 0.2 mi NE 4.6 mph - N/A Fog , Snow Light Freezing Fog
11:18 AM 28.4 °F 23.3 °F 28.4 °F 100% 30.27 in 0.2 mi NE 4.6 mph - N/A Fog , Snow Light Freezing Fog
11:33 AM 28.4 °F 23.3 °F 28.4 °F 100% 30.27 in 0.5 mi NNE 4.6 mph - N/A Fog , Snow Light Freezing Fog
11:43 AM 28.4 °F 19.7 °F 28.4 °F 100% 30.28 in 1.0 mi North 9.2 mph - N/A Snow Light Snow
11:48 AM 30.2 °F 22.6 °F 30.2 °F 100% 30.28 in 1.2 mi North 8.1 mph - N/A Snow Light Snow
11:53 AM 30.2 °F 22.6 °F 30.2 °F 100% 30.28 in 1.0 mi NNE 8.1 mph - N/A Snow Light Snow
11:58 AM 29.5 °F 21.8 °F 29.5 °F 100% 30.31 in 1.0 mi NNE 8.1 mph - 0.01 in Snow Light Snow
12:08 PM 30.2 °F 23.4 °F 30.2 °F 100% 30.28 in 1.0 mi NNE 6.9 mph - N/A Snow Light Snow
12:13 PM 30.2 °F 23.4 °F 30.2 °F 100% 30.28 in 0.8 mi NNE 6.9 mph - N/A Snow Light Snow
12:23 PM 30.2 °F 24.3 °F 30.2 °F 100% 30.28 in 1.0 mi NNE 5.8 mph - N/A Snow Light Snow
12:28 PM 30.2 °F 24.3 °F 30.2 °F 100% 30.28 in 1.2 mi NNE 5.8 mph - N/A Snow Light Snow
12:38 PM 30.2 °F 25.4 °F 30.2 °F 100% 30.28 in 1.0 mi NNE 4.6 mph - N/A Snow Light Snow
12:58 PM 30.4 °F 25.6 °F 30.4 °F 100% 30.30 in 1.0 mi NNE 4.6 mph - 0.01 in Snow Light Snow
1:03 PM 32.0 °F 27.5 °F 32.0 °F 100% 30.27 in 1.0 mi NNE 4.6 mph - N/A Snow Light Snow
1:08 PM 32.0 °F 27.5 °F 32.0 °F 100% 30.27 in 1.2 mi NNE 4.6 mph - N/A Snow Light Snow
1:13 PM 32.0 °F 28.7 °F 32.0 °F 100% 30.27 in 1.0 mi NNE 3.5 mph - N/A Snow Light Snow
1:43 PM 32.0 °F - 32.0 °F 100% 30.26 in 1.0 mi ENE 2.3 mph - N/A Snow Light Snow
1:48 PM 32.0 °F - 32.0 °F 100% 30.26 in 1.2 mi East 1.2 mph - N/A Snow Light Snow
1:58 PM 31.1 °F - 31.1 °F 100% 30.29 in 1.2 mi SE 2.3 mph - 0.08 in Snow Light Snow
2:03 PM 32.0 °F - 32.0 °F 100% 30.25 in 1.5 mi SSE 2.3 mph - N/A Snow Light Snow
2:08 PM 32.0 °F - 32.0 °F 100% 30.25 in 2.0 mi SSE 2.3 mph - N/A Snow Light Snow
2:13 PM 32.0 °F - 32.0 °F 100% 30.25 in 2.5 mi South 2.3 mph - N/A Snow Light Snow
2:18 PM 32.0 °F 28.7 °F 32.0 °F 100% 30.25 in 3.0 mi South 3.5 mph - N/A Snow Light Snow
2:42 PM 32.0 °F 27.5 °F 32.0 °F 100% 30.24 in 9.0 mi SW 4.6 mph - N/A   Overcast
2:58 PM 33.8 °F 28.6 °F 33.8 °F 100% 30.27 in 10.0 mi SSW 5.8 mph - 0.07 in   Mostly Cloudy
3:03 PM 33.8 °F 28.6 °F 33.8 °F 100% 30.23 in 10.0 mi SSW 5.8 mph - N/A   Overcast
3:23 PM 35.6 °F 29.2 °F 35.6 °F 100% 30.22 in 10.0 mi SSW 8.1 mph - N/A   Overcast
3:38 PM 35.6 °F 28.6 °F 35.6 °F 100% 30.22 in 10.0 mi SW 9.2 mph - N/A   Overcast
3:58 PM 37.4 °F 31.4 °F 32.7 °F 83% 30.25 in 10.0 mi SW 8.1 mph - 0.03 in   Overcast
4:58 PM 40.8 °F 36.9 °F 31.6 °F 70% 30.23 in 10.0 mi Variable 5.8 mph - N/A   Clear
5:58 PM 44.4 °F 42.0 °F 28.4 °F 53% 30.22 in 10.0 mi NNW 4.6 mph - N/A   Clear
6:58 PM 44.1 °F 40.1 °F 21.7 °F 41% 30.23 in 10.0 mi NNW 6.9 mph - N/A   Clear
7:58 PM 41.2 °F 37.3 °F 22.6 °F 48% 30.25 in 10.0 mi NNW 5.8 mph - N/A   Clear
8:55 PM 37.4 °F 32.1 °F 24.8 °F 60% 30.25 in 7.0 mi Variable 6.9 mph - N/A   Clear
9:55 PM 33.8 °F 27.7 °F 24.8 °F 70% 30.23 in 7.0 mi Variable 6.9 mph - N/A   Clear
10:55 PM 33.8 °F 29.6 °F 24.8 °F 70% 30.28 in 7.0 mi Variable 4.6 mph - N/A   Clear
11:55 PM 32.0 °F 25.6 °F 26.6 °F 80% 30.28 in 7.0 mi Variable 6.9 mph - N/A   Clear